Change the Weather History Date:

Thursday, September 19, 2013

  Actual Average (KPDC) Record (KPDC)
Temperature  
Mean Temperature 78 °F -  
Max Temperature 91 °F 74 °F 95 °F (1948)
Min Temperature 69 °F 53 °F 36 °F (1991)
Cooling Degree Days 14    
Growing Degree Days 28 (Base 50)    
Moisture  
Dew Point 67 °F    
Average Humidity 86    
Maximum Humidity 96    
Minimum Humidity 51    
Precipitation  
Precipitation 0.97 in - - ()
Sea Level Pressure  
Sea Level Pressure 29.80 in    
Wind  
Wind Speed 5 mph (SSW)    
Max Wind Speed 20 mph    
Max Gust Speed 53 mph    
Visibility 7 miles    
Events Rain , Thunderstorm    
Averages and records for this station are not official NWS values.
T = Trace of Precipitation, MM = Missing Value Source: NWS Daily Summary

Daily Weather History Graph

Daily Weather History Graph

Search for Another Location

Airport or City:

Trip Planner

Search our weather history database for the weather conditions in past years. The results will help you decide how hot, cold, wet, or windy it might be!

Date:

Astronomy

Sep. 19, 2013 Rise Set
Actual Time 6:46 AM CDT 7:05 PM CDT
Civil Twilight 6:18 AM CDT 7:33 PM CDT
Nautical Twilight 5:45 AM CDT 8:06 PM CDT
Astronomical Twilight 5:10 AM CDT 8:41 PM CDT
Moon 7:01 PM CDT (9/19) 6:57 AM CDT (9/19)
Length of Visible Light 13h 14m
Length of Day
12h 18m
Full, 100% of the Moon is Illuminated
Sep 19
Full
Sep 26
Last Quarter
Oct 4
New
Oct 11
First Quarter
Oct 18
Full

Hourly Weather History & Observations

Time (CDT) Temp. Heat Index Dew Point Humidity Pressure Visibility Wind Dir Wind Speed Gust Speed Precip Events Conditions
12:53 AM 75.0 °F - 68.0 °F 79% 29.84 in 10.0 mi SSW 6.9 mph - 0.00 in Rain Light Rain
1:53 AM 75.0 °F - 68.0 °F 79% 29.84 in 10.0 mi Variable 4.6 mph - 0.00 in   Partly Cloudy
2:24 AM 75.0 °F - 68.0 °F 79% 29.84 in 10.0 mi SSW 8.1 mph - 0.00 in Thunderstorm Mostly Cloudy
2:42 AM 73.9 °F - 69.1 °F 85% 29.85 in 7.0 mi SSW 6.9 mph - 0.01 in Rain , Thunderstorm Thunderstorms and Rain
2:53 AM 73.0 °F - 69.1 °F 87% 29.84 in 7.0 mi West 5.8 mph - 0.02 in Rain , Thunderstorm Light Thunderstorms and Rain
3:10 AM 71.1 °F - 69.1 °F 93% 29.84 in 4.0 mi East 3.5 mph - 0.03 in Rain , Thunderstorm Heavy Rain
3:39 AM 71.1 °F - 69.1 °F 93% 29.84 in 7.0 mi Calm Calm - 0.04 in Rain Light Rain
3:53 AM 71.1 °F - 69.1 °F 93% 29.82 in 6.0 mi Calm Calm - 0.04 in Rain Light Rain
4:10 AM 70.0 °F - 68.0 °F 93% 29.83 in 1.8 mi Calm Calm - 0.00 in   Partly Cloudy
4:23 AM 70.0 °F - 68.0 °F 93% 29.83 in 3.0 mi Calm Calm - 0.00 in   Partly Cloudy
4:53 AM 69.1 °F - 66.9 °F 93% 29.82 in 4.0 mi Calm Calm - 0.00 in Thunderstorm Mostly Cloudy
5:34 AM 72.0 °F - 68.0 °F 87% 29.82 in 9.0 mi Calm Calm - N/A   Mostly Cloudy
5:53 AM 72.0 °F - 68.0 °F 87% 29.81 in 9.0 mi Calm Calm - N/A Thunderstorm Thunderstorm
6:10 AM 71.1 °F - 68.0 °F 90% 29.82 in 7.0 mi Calm Calm - N/A   Mostly Cloudy
6:21 AM 72.0 °F - 68.0 °F 87% 29.82 in 9.0 mi Calm Calm - N/A Thunderstorm Overcast
6:36 AM 72.0 °F - 68.0 °F 87% 29.82 in 10.0 mi Calm Calm - N/A   Mostly Cloudy
6:53 AM 71.1 °F - 66.9 °F 87% 29.81 in 10.0 mi Calm Calm - N/A   Mostly Cloudy
7:53 AM 72.0 °F - 66.9 °F 84% 29.81 in 10.0 mi Variable 3.5 mph - N/A   Mostly Cloudy
8:53 AM 73.9 °F - 68.0 °F 82% 29.82 in 10.0 mi South 9.2 mph - N/A Thunderstorm Mostly Cloudy
9:50 AM 73.4 °F - 66.2 °F 78% 29.84 in 10.0 mi South 12.7 mph 20.7 mph 0.01 in Rain , Thunderstorm Light Thunderstorms and Rain
9:53 AM 73.0 °F - 66.9 °F 81% 29.81 in 6.0 mi SSW 11.5 mph 20.7 mph 0.03 in Rain , Thunderstorm Light Thunderstorms and Rain
9:55 AM 72.0 °F - 66.9 °F 84% 29.82 in 1.2 mi South 9.2 mph 20.7 mph 0.10 in Rain , Thunderstorm Thunderstorms and Rain
9:59 AM 71.1 °F - 66.9 °F 87% 29.82 in 0.8 mi SSE 5.8 mph 20.7 mph 0.13 in Rain , Thunderstorm Heavy Thunderstorms and Rain
10:05 AM 70.0 °F - 66.9 °F 90% 29.82 in 1.5 mi Variable 3.5 mph - 0.14 in Rain , Thunderstorm Light Thunderstorms and Rain
10:07 AM 70.0 °F - 66.9 °F 90% 29.82 in 3.0 mi Calm Calm - 0.14 in Rain , Thunderstorm Light Thunderstorms and Rain
10:24 AM 70.0 °F - 66.9 °F 90% 29.81 in 10.0 mi Calm Calm - 0.14 in Rain , Thunderstorm Light Rain
10:53 AM 71.1 °F - 66.9 °F 87% 29.82 in 10.0 mi South 6.9 mph - 0.14 in   Partly Cloudy
11:53 AM 80.1 °F 83.6 °F 71.1 °F 74% 29.81 in 10.0 mi Variable 6.9 mph - N/A   Clear
12:53 PM 84.0 °F 88.4 °F 70.0 °F 63% 29.79 in 10.0 mi South 12.7 mph 20.7 mph N/A   Partly Cloudy
1:53 PM 88.0 °F 92.9 °F 70.0 °F 55% 29.76 in 10.0 mi SSW 10.4 mph - N/A   Scattered Clouds
2:53 PM 88.0 °F 91.4 °F 68.0 °F 51% 29.73 in 10.0 mi SSW 9.2 mph - N/A   Scattered Clouds
3:27 PM 87.1 °F 90.6 °F 68.0 °F 53% 29.72 in 10.0 mi SSW 10.4 mph - N/A Thunderstorm Mostly Cloudy
3:53 PM 69.1 °F - 63.0 °F 81% 29.79 in 0.5 mi West 19.6 mph 52.9 mph 0.22 in Rain , Thunderstorm Heavy Thunderstorms and Rain
4:08 PM 69.1 °F - 64.9 °F 87% 29.81 in 1.5 mi SSW 10.4 mph 19.6 mph 0.12 in Rain , Thunderstorm Heavy Thunderstorms and Rain
4:22 PM 70.0 °F - 66.0 °F 87% 29.76 in 2.5 mi Calm Calm - 0.19 in Rain , Thunderstorm Heavy Thunderstorms and Rain
4:32 PM 70.0 °F - 66.0 °F 87% 29.75 in 5.0 mi Variable 3.5 mph - 0.20 in Rain , Thunderstorm Rain
4:40 PM 70.0 °F - 66.0 °F 87% 29.71 in 10.0 mi Calm Calm - 0.20 in Rain , Thunderstorm Light Thunderstorms and Rain
4:53 PM 70.0 °F - 66.9 °F 90% 29.71 in 10.0 mi Variable 3.5 mph - 0.20 in   Partly Cloudy
5:53 PM 70.0 °F - 66.9 °F 90% 29.74 in 10.0 mi Calm Calm - 0.00 in   Scattered Clouds
6:53 PM 70.0 °F - 66.9 °F 90% 29.75 in 10.0 mi West 4.6 mph - 0.02 in   Overcast
7:06 PM 70.0 °F - 66.9 °F 90% 29.77 in 8.0 mi WSW 6.9 mph - 0.01 in Rain , Thunderstorm Light Rain
7:53 PM 70.0 °F - 66.9 °F 90% 29.79 in 8.0 mi SSW 5.8 mph - 0.07 in Rain , Thunderstorm Light Rain
8:01 PM 70.0 °F - 68.0 °F 93% 29.79 in 2.5 mi SSW 5.8 mph - 0.07 in Rain , Thunderstorm Heavy Thunderstorms and Rain
8:13 PM 70.0 °F - 66.9 °F 90% 29.78 in 3.0 mi West 3.5 mph - 0.10 in Rain , Thunderstorm Heavy Rain
8:25 PM 69.1 °F - 66.9 °F 93% 29.77 in 5.0 mi Calm Calm - 0.12 in Rain , Thunderstorm Heavy Thunderstorms and Rain
8:40 PM 69.1 °F - 66.9 °F 93% 29.79 in 5.0 mi SSW 6.9 mph - 0.14 in Rain , Thunderstorm Rain
8:49 PM 69.8 °F - 66.2 °F 88% 29.79 in 7.0 mi South 6.9 mph - 0.15 in Rain Rain
8:53 PM 69.1 °F - 66.9 °F 93% 29.78 in 6.0 mi SSW 6.9 mph - 0.16 in Rain Rain
9:42 PM 69.1 °F - 66.9 °F 93% 29.73 in 10.0 mi Calm Calm - 0.07 in Rain Light Rain
9:53 PM 69.1 °F - 66.9 °F 93% 29.73 in 8.0 mi West 3.5 mph - 0.07 in   Partly Cloudy
10:25 PM 70.0 °F - 68.0 °F 93% 29.79 in 9.0 mi SW 9.2 mph - N/A   Mostly Cloudy
10:51 PM 69.8 °F - 68.0 °F 94% 29.79 in 8.0 mi SSW 4.6 mph - N/A   Overcast
10:53 PM 69.1 °F - 68.0 °F 96% 29.78 in 8.0 mi SSW 4.6 mph - N/A   Overcast
11:07 PM 70.0 °F - 68.0 °F 93% 29.78 in 8.0 mi SW 6.9 mph - N/A   Overcast
11:53 PM 70.0 °F - 68.0 °F 93% 29.77 in 9.0 mi South 3.5 mph - 0.00 in   Overcast